User: anonymous
Location: Unspecified
(0.0000°N, 0.0000°E)
Time: 18:48:20
(UTC+02:00)
Language:

CZ-2C R/B - Orbit

View from above orbital plane
View from above orbital plane
View from above satellite
View from above satellite

Ground track
Ground track

The orbit data is extracted from the following two-line orbital elements,

1 28480U 04046B   14210.07933624  .00000073  00000-0  42545-4 0  3930
2 28480 098.0954 002.8450 0143927 098.0789 035.2103 14.25315859504056
Epoch (UTC): 29 July 2014 01:54:14
Eccentricity: 0.0143927
inclination: 98.0954°
perigee height: 704 km
apogee height: 911 km
right ascension of ascending node: 2.8450°
argument of perigee: 98.0789°
revolutions per day: 14.25315859
mean anomaly at epoch: 35.2103°
orbit number at epoch: 50405

The dashed part of the orbit path shows where the satellite is in the earth's shadow,  

DLR